[[{"header":{"parameterUnit":"m.s-1","parameterCategory":1,"la1":30.2991,"la2":30.254,"lo1":-89.0895,"lo2":-89.0444,"dy":0.0017,"dx":0.0017,"nx":28,"ny":28,"refTime":"2024-07-12T09:00:00:Z","depth":0,"parameterNumber":2,"parameterNumberName":"U-component_of_WINDS"},"data":[0,0,0,0,0,0,0,0,0,0,0,0,0,0,0,0,0,0,0,0,0,0,0,0,0,0,0,0,0,0,0,0,0,0,0,0,0,0,0,0,0,0,0,0,0,0,0,0,0,0,0,0,0,0,0,0,0,0,1.4673,1.4674,0,1.4808,1.481,1.4811,1.4812,1.481,1.4808,1.4807,1.4949,1.4954,1.496,0,0,0,0,0,0,0,0,0,0,0,0,0,1.4417,1.4422,1.4673,1.4674,1.4676,1.4808,1.481,1.4812,1.4812,1.481,1.4808,1.4806,1.4947,1.4954,1.496,0,0,0,0,0,0,0,0,0,0,0,0,0,1.4538,1.4423,1.4672,1.4692,1.4695,1.4808,1.481,1.4812,1.4813,1.481,1.4807,1.4805,1.4945,1.4953,1.4961,1.5064,0,0,1.4986,1.499,0,0,0,0,0,0,0,0,1.4531,1.4547,1.4688,1.4691,1.4695,1.479,1.4772,1.4897,1.4813,1.4768,1.4807,1.4804,1.4899,1.4911,1.4942,1.5071,1.5077,1.4987,1.4992,1.4995,1.4998,0,0,0,0,0,0,0,1.4523,1.4542,1.4726,1.469,1.4694,1.4695,1.4709,1.4796,1.4847,1.4772,1.4772,1.4788,1.49,1.4934,1.4945,1.5079,1.4987,1.4994,1.4999,1.5002,1.5299,1.5301,0,0,0,0,0,0,1.451,1.4535,1.4722,1.473,1.4605,1.4702,1.4718,1.4762,1.4846,1.4856,1.479,1.4788,1.4921,1.4936,1.495,1.5076,1.4995,1.5003,1.5008,1.5296,1.5299,1.5303,0,0,0,0,0,0,1.4504,1.4527,1.4717,1.4633,1.4657,1.4709,1.4759,1.4766,1.48,1.4859,1.4869,1.4815,1.492,1.4939,1.5035,1.5081,1.5006,1.5014,1.5292,1.5297,1.5301,1.5328,0,0,0,0,0,0,1.4497,1.4525,1.4564,1.4633,1.4661,1.4799,1.4762,1.4771,1.4814,1.4812,1.4885,1.4895,1.4919,1.5023,1.5043,1.5091,1.502,1.5288,1.5294,1.53,1.5324,1.5333,1.5342,0,0,0,0,0,1.4488,1.4567,1.4566,1.4588,1.4711,1.4801,1.4818,1.4843,1.4817,1.4858,1.4895,1.4893,1.5072,1.5033,1.5056,1.5106,1.5286,1.5293,1.5299,1.532,1.5331,1.5341,0,0,0,0,0,0,1.4503,1.4577,1.4576,1.468,1.4734,1.4801,1.4853,1.4854,1.4918,1.4914,1.4943,1.496,1.5056,1.5091,1.5046,1.521,1.5176,1.5188,1.5184,1.5196,1.5204,1.5194,1.5027,0,0,0,0,0,1.4518,1.4584,1.4645,1.4731,1.4758,1.4801,1.4841,1.4855,1.4913,1.4937,1.4982,1.5039,1.5109,1.5154,1.5221,1.5328,1.5345,1.5374,1.5383,1.539,1.54,1.5459,1.5473,1.5325,1.5325,1.5325,0,0,1.455,1.4599,1.4639,1.4735,1.4779,1.4848,1.482,1.4894,1.4946,1.4949,1.5042,1.5077,1.5143,1.5245,1.5293,1.5278,1.5445,1.5399,1.5404,1.541,1.5468,1.5482,1.5494,1.5329,1.5328,1.5328,0,0,1.4644,1.4687,1.4763,1.4807,1.4874,1.4901,1.4919,1.4986,1.5009,1.5103,1.5107,1.5169,1.5287,1.5334,1.5374,1.5484,1.5484,1.5505,1.5552,1.5609,1.5621,1.5632,1.5671,1.5685,1.5515,1.5515,1.5515,0,1.4677,1.4779,1.4803,1.4877,1.4919,1.4923,1.5,1.5042,1.5128,1.5157,1.5138,1.5287,1.5332,1.5445,1.5471,1.5503,1.5525,1.5497,1.5617,1.5628,1.5638,1.5677,1.5691,1.5517,1.5517,1.5516,1.5516,0,1.4816,1.4887,1.4941,1.5021,1.5069,1.5145,1.518,1.5226,1.5236,1.5266,1.5362,1.5415,1.5493,1.5521,1.5532,1.5636,1.5624,1.5611,1.5577,1.5654,1.5691,1.5706,1.552,1.5519,1.5519,1.5518,0,0,1.4925,1.5016,1.5035,1.5072,1.5144,1.52,1.5276,1.535,1.539,1.5448,1.5513,1.5612,1.56,1.5645,1.5661,1.5711,1.5795,1.5692,1.5694,1.571,1.5913,1.5923,1.594,1.5795,1.5798,1.58,1.5908,0,1.5027,1.516,1.5183,1.53,1.5366,1.537,1.5436,1.5488,1.5517,1.5579,1.5611,1.5682,1.566,1.5687,1.5737,1.5775,1.5837,1.5767,1.5857,1.586,1.5841,1.5959,1.5969,1.6068,1.5922,1.5925,1.5926,0,1.5165,1.5225,1.5348,1.5411,1.544,1.5498,1.5568,1.5626,1.5686,1.5704,1.5752,1.5762,1.5842,1.5803,1.5913,1.5865,1.5903,1.5927,1.5931,1.5942,1.5898,1.5972,1.61,1.6115,1.5949,1.5947,1.5946,0,1.5232,1.5344,1.5432,1.5463,1.5539,1.558,1.5614,1.567,1.5713,1.5775,1.5803,1.5873,1.5912,1.5966,1.5995,1.5964,1.6103,1.6067,1.6121,1.612,1.6151,1.6148,1.6287,1.6174,1.6173,1.6173,1.6173,0,1.5344,1.542,1.5463,1.5518,1.5602,1.5627,1.5711,1.5744,1.5793,1.5855,1.5863,1.592,1.5954,1.6017,1.604,1.6127,1.6145,1.6162,1.6168,1.6162,1.616,1.6188,1.6182,1.6177,1.6176,1.6176,1.6175,0,1.5434,1.5466,1.5563,1.5626,1.5643,1.5703,1.5758,1.5811,1.5839,1.5917,1.5936,1.5982,1.6056,1.6089,1.6181,1.6197,1.6297,1.6297,1.6276,1.6278,1.633,1.6325,1.6492,1.6515,1.6386,1.6387,1.6388,0,1.5504,1.5562,1.5631,1.5672,1.5706,1.5772,1.5816,1.5843,1.5888,1.5959,1.6004,1.6078,1.6138,1.6256,1.6298,1.6368,1.6371,1.6425,1.6382,1.6374,1.6372,1.6369,1.6375,1.6433,1.6434,1.6435,1.6436,0,1.5625,1.5638,1.57,1.5767,1.5819,1.5874,1.5928,1.5961,1.5996,1.6047,1.6122,1.6169,1.6261,1.6335,1.6407,1.6443,1.6446,1.6449,1.6465,1.646,1.6446,1.6454,1.6298,1.6445,1.6444,1.6444,1.6443,1.6443,1.5707,1.5759,1.5815,1.5884,1.5927,1.5976,1.6029,1.6064,1.6126,1.6203,1.6215,1.6295,1.6353,1.645,1.6488,1.6552,1.6539,1.6562,1.6568,1.6574,1.6577,1.6435,1.6565,1.6565,1.6565,1.6564,1.6564,0,1.5829,1.5865,1.5928,1.6002,1.6056,1.6052,1.6111,1.6157,1.6227,1.6279,1.6338,1.6424,1.6495,1.6542,1.6614,1.6656,1.6659,1.6674,1.6671,1.6679,1.6584,1.6563,1.667,1.667,1.667,1.667,1.667,1.667,1.5898,1.5985,1.6004,1.6112,1.6148,1.6225,1.6259,1.6306,1.6348,1.6443,1.6501,1.6531,1.6581,1.6656,1.6721,1.6733,1.676,1.6775,1.6787,1.6697,1.6686,1.6676,1.6656,1.6781,1.6781,1.6877,1.6878,1.6878]},{"header":{"parameterUnit":"m.s-1","parameterCategory":1,"la1":30.2991,"la2":30.254,"lo1":-89.0895,"lo2":-89.0444,"dy":0.0017,"dx":0.0017,"nx":28,"ny":28,"refTime":"2024-07-12T09:00:00:Z","depth":0,"parameterNumber":3,"parameterNumberName":"V-component_of_WINDS"},"data":[0,0,0,0,0,0,0,0,0,0,0,0,0,0,0,0,0,0,0,0,0,0,0,0,0,0,0,0,0,0,0,0,0,0,0,0,0,0,0,0,0,0,0,0,0,0,0,0,0,0,0,0,0,0,0,0,0,0,2.6381,2.6381,0,2.6385,2.6385,2.6385,2.6391,2.6391,2.6391,2.6391,2.6392,2.6392,2.6392,0,0,0,0,0,0,0,0,0,0,0,0,0,2.6372,2.6373,2.6381,2.6381,2.6381,2.6385,2.6385,2.6385,2.6391,2.6391,2.6391,2.6391,2.6392,2.6392,2.6392,0,0,0,0,0,0,0,0,0,0,0,0,0,2.6376,2.6373,2.6381,2.6384,2.6385,2.6385,2.6385,2.6385,2.6391,2.6391,2.6391,2.6391,2.6392,2.6392,2.6392,2.6389,0,0,2.6392,2.6392,0,0,0,0,0,0,0,0,2.6376,2.6377,2.6384,2.6384,2.6385,2.6388,2.6383,2.6386,2.6391,2.6388,2.6391,2.6391,2.639,2.639,2.6391,2.6389,2.6389,2.6392,2.6392,2.6392,2.6392,0,0,0,0,0,0,0,2.6376,2.6376,2.6383,2.6384,2.6384,2.6384,2.6385,2.6383,2.6388,2.6389,2.6389,2.639,2.6391,2.6391,2.6391,2.6389,2.6392,2.6392,2.6392,2.6392,2.638,2.638,0,0,0,0,0,0,2.6376,2.6376,2.6382,2.6383,2.6381,2.6384,2.6385,2.6386,2.6388,2.6389,2.6389,2.639,2.6391,2.6391,2.6391,2.6385,2.6392,2.6392,2.6392,2.638,2.638,2.638,0,0,0,0,0,0,2.6375,2.6376,2.6382,2.638,2.638,2.6384,2.6386,2.6386,2.6387,2.6389,2.639,2.6389,2.6391,2.6391,2.6389,2.6385,2.6392,2.6392,2.638,2.638,2.638,2.6374,0,0,0,0,0,0,2.6375,2.6376,2.6376,2.638,2.638,2.6381,2.6386,2.6386,2.6387,2.6388,2.6389,2.6389,2.6391,2.6389,2.6388,2.6385,2.6391,2.6381,2.638,2.638,2.6374,2.6373,2.6372,0,0,0,0,0,2.6375,2.6375,2.6376,2.6377,2.6381,2.6381,2.6382,2.6385,2.6387,2.6386,2.6387,2.6389,2.6385,2.6388,2.6388,2.6385,2.6381,2.638,2.638,2.6375,2.6373,2.6372,0,0,0,0,0,0,2.6371,2.6375,2.6377,2.6378,2.6379,2.6382,2.6382,2.6384,2.6384,2.6384,2.6387,2.6387,2.6383,2.6384,2.6387,2.6379,2.6383,2.6383,2.6379,2.6378,2.6377,2.6377,2.6391,0,0,0,0,0,2.637,2.6371,2.6374,2.6375,2.6375,2.6378,2.6379,2.638,2.6381,2.6382,2.6383,2.6382,2.638,2.6379,2.6378,2.6374,2.6373,2.6371,2.637,2.6369,2.6369,2.6363,2.6362,2.6378,2.6378,2.6378,0,0,2.6368,2.6371,2.6371,2.6374,2.6375,2.6374,2.6379,2.6379,2.6377,2.6381,2.6379,2.6379,2.6378,2.6374,2.6372,2.6374,2.6364,2.6369,2.6368,2.6368,2.6362,2.6361,2.636,2.6377,2.6377,2.6377,0,0,2.6365,2.6368,2.6367,2.6368,2.6369,2.6371,2.637,2.6372,2.6373,2.637,2.6372,2.637,2.6368,2.6366,2.6365,2.6358,2.6359,2.6357,2.6352,2.6346,2.6345,2.6344,2.6339,2.6337,2.6356,2.6356,2.6356,0,2.6362,2.6363,2.6366,2.6365,2.6365,2.6369,2.6366,2.6366,2.6367,2.6366,2.6368,2.6364,2.6364,2.6358,2.6356,2.6355,2.6353,2.6357,2.6345,2.6344,2.6343,2.6338,2.6337,2.6356,2.6356,2.6356,2.6356,0,2.6358,2.6358,2.6357,2.6358,2.6357,2.6356,2.6357,2.6356,2.6357,2.6357,2.6353,2.6352,2.635,2.6349,2.635,2.6342,2.6343,2.6345,2.6349,2.6341,2.6336,2.6335,2.6355,2.6355,2.6356,2.6356,0,0,2.6354,2.6355,2.6354,2.6353,2.6354,2.6353,2.635,2.6348,2.6345,2.6345,2.6341,2.6337,2.6338,2.6337,2.6338,2.6333,2.6324,2.6336,2.6336,2.6332,2.6312,2.6309,2.6307,2.6325,2.6324,2.6324,2.6311,0,2.635,2.6347,2.6348,2.6344,2.6342,2.6343,2.634,2.6339,2.6338,2.6335,2.6334,2.633,2.6334,2.6332,2.6328,2.6326,2.632,2.6327,2.6319,2.6319,2.6318,2.6305,2.6303,2.6291,2.6309,2.6309,2.6309,0,2.6345,2.6344,2.6339,2.6337,2.6336,2.6334,2.633,2.6328,2.6325,2.6324,2.6321,2.6322,2.6316,2.632,2.6311,2.6316,2.6312,2.631,2.631,2.6308,2.6313,2.6302,2.6288,2.6285,2.6307,2.6307,2.6307,0,2.634,2.6337,2.6334,2.6333,2.6331,2.6328,2.6327,2.6324,2.6322,2.6318,2.6316,2.6311,2.6308,2.6303,2.6301,2.6305,2.6291,2.6295,2.6288,2.6288,2.6285,2.6285,2.6269,2.6285,2.6285,2.6285,2.6285,0,2.6335,2.6332,2.6331,2.6329,2.6324,2.6324,2.6318,2.6317,2.6314,2.6309,2.631,2.6305,2.6304,2.6298,2.6296,2.6287,2.6286,2.6283,2.6283,2.6283,2.6283,2.628,2.628,2.6284,2.6284,2.6284,2.6285,0,2.6329,2.6329,2.6324,2.6322,2.6321,2.6317,2.6314,2.631,2.6309,2.6303,2.6301,2.6298,2.6291,2.6288,2.628,2.6278,2.6267,2.6268,2.6268,2.6268,2.626,2.626,2.624,2.6237,2.6256,2.6256,2.6256,0,2.6326,2.6323,2.6319,2.6317,2.6315,2.6311,2.6308,2.6307,2.6304,2.6298,2.6294,2.6287,2.6281,2.6269,2.6265,2.6257,2.6257,2.625,2.6256,2.6255,2.6255,2.6254,2.6253,2.6249,2.6249,2.6249,2.6249,0,2.6319,2.6318,2.6314,2.6309,2.6306,2.6302,2.6298,2.6295,2.6293,2.6289,2.6282,2.6277,2.6267,2.6259,2.6251,2.6247,2.6246,2.6247,2.6244,2.6244,2.6244,2.6242,2.6264,2.6247,2.6248,2.6248,2.6248,2.6248,2.6313,2.6309,2.6306,2.63,2.6297,2.6293,2.6288,2.6285,2.628,2.6272,2.6271,2.6262,2.6256,2.6244,2.624,2.6232,2.6233,2.623,2.6229,2.6228,2.6227,2.6246,2.623,2.623,2.623,2.623,2.623,0,2.6304,2.6301,2.6297,2.6291,2.6286,2.6286,2.6281,2.6276,2.6269,2.6263,2.6257,2.6247,2.6238,2.6232,2.6222,2.6217,2.6216,2.6214,2.6214,2.6212,2.6227,2.6229,2.6214,2.6214,2.6214,2.6214,2.6214,2.6214,2.6299,2.6293,2.6291,2.6281,2.6277,2.627,2.6266,2.6261,2.6256,2.6245,2.6237,2.6234,2.6227,2.6216,2.6207,2.6205,2.6201,2.6198,2.6196,2.621,2.6212,2.6213,2.6215,2.6198,2.6198,2.6182,2.6182,2.6182]}]]